Location: Fours
(44.3167°N, 6.7000°E)
Time: 12:37:18
(UTC+00:00)

X-37B - Pass Details

Date: 09 December 2021
Orbit: 334 x 337 km, 45.0° (Epoch: 11 January)

Event Time Altitude Azimuth Distance (km) Brightness Sun altitude
Rises 17:53:15 0° 256° (WSW) 2,100 5.9 -20.5°
Reaches altitude 10° 17:55:15 10° 255° (WSW) 1,265 4.4 -20.9°
Enters shadow 17:57:14 41° 252° (WSW) 499 1.6 -21.2°
